[ hide orbit diagram ]
For accurate long-term ephemerides, please instead use our Horizons system.This orbit viewer was implemented using two-body methods, and hence should not be used for determining accurate long-term trajectories (over several years or decades) or planetary encounter circumstances.
Orbital Elements at Epoch 2459000.5 (2020-May-31.0) TDB
Reference: JPL 114 (heliocentric ecliptic J2000)
Element | Value | Uncertainty (1-sigma) | Units |
e | .2431038925204059 | 3.5826e-08 | |
a | 2.585145143140131 | 5.2347e-09 | au |
q | 1.956686296112543 | 9.2125e-08 | au |
i | 11.93881569630255 | 3.5091e-06 | deg |
node | 255.2168582319588 | 1.8347e-05 | deg |
peri | 308.8632868084159 | 1.9505e-05 | deg |
M | 99.30711965262199 | 8.9479e-06 | deg |
tp | 2458581.702858136341 (2019-Apr-08.20285814) | 3.7293e-05 | TDB |
period | 1518.188943534994 4.16 | 4.6113e-06 1.263e-08 | d yr |
n | .2371246355949385 | 7.2024e-10 | deg/d |
Q | 3.213603990167719 | 6.5073e-09 | au |
|
| | Orbit Determination Parameters
Additional Information
|
[ show covariance matrix ]
Physical Parameter Table
Parameter |
Symbol |
Value |
Units |
Sigma |
Reference |
Notes |
absolute magnitude |
H |
8.6 |
|
n/a |
MPO492753 |
IRAS observations used: 15 |
diameter |
diameter |
108.894 |
km |
0.312 |
urn:nasa:pds:neowise_diameters_albedos::2.0[mainbelt] (http://adsabs.harvard.edu/abs/2014ApJ...791..121M) |
|
rotation period |
rot_per |
9.950 |
h |
n/a |
LCDB (Rev. 2020-October); Warner et al., 2009 |
Published Reference List: [Harris, A.W.; Young, J.W. (1980) Icarus 43, 20-32.] [Wang, X.-B. (2002) Earth, Moon, and Planets 91, 25-30.] [Behrend, R. (2016) Observatoire de Geneve web site, http://obswww.unige.ch/~behrend/page_cou.html] [Behrend, R. (2020) Observatoire de Geneve web site, http://obswww.unige.ch/~behrend/page_cou.html] [Pal, A.; Szakats, R.; Kiss, C.; Bodi, A.; et al. (2019) Ap. J. Supl. Ser. 247, id.26.] |
geometric albedo |
albedo |
0.018 |
|
0.007 |
urn:nasa:pds:neowise_diameters_albedos::2.0[mainbelt] (http://adsabs.harvard.edu/abs/2016AJ....152...63N) |
|
B-V |
BV |
0.698 |
|
0.019 |
EAR-A-5-DDR-UBV-MEAN-VALUES-V1.2 |
#obs=5; phase (min.=2.35, mean=16.80, max.=27.16) deg. |
U-B |
UB |
0.388 |
|
0.039 |
EAR-A-5-DDR-UBV-MEAN-VALUES-V1.2 |
#obs=5; phase (min.=2.35, mean=16.80, max.=27.16) deg. |
Tholen spectral type |
spec_T |
C |
|
n/a |
EAR-A-5-DDR-TAXONOMY-V4.0 |
used 7 color indices |
SMASSII spectral type |
spec_B |
Ch |
|
n/a |
EAR-A-5-DDR-TAXONOMY-V4.0 |
based on a high-resolution spectrum by Xu et al. (1995) or Bus and Binzel (2002) |
|
405 Thia (A895 OB) Discovered 1895-Jul-23 by Charlois, A. at Nice |
Reference: DISCOVERY.DB | Last Updated: 2003-08-29 |
|
[ hide close-approach data ]
Close-Approach Data ...sorted by Date/Time (TDB)
|
Date/Time (TDB) |
Time Uncertainty (days_HH:MM) |
Body |
Nominal Distance (au) |
Minimum Distance (au) |
Maximum Distance (au) |
V-relative (km/s) |
V-infinity (km/s) |
JD (TDB) |
Time Uncertainty (minutes) |
Semi-major axis (km) |
Semi-minor axis (km) |
range-LOV angle (deg) |
N-sigma |
BP |
Orbit Ref. |
Reference |
Modified |
1905-Jun-23 19:47 |
< 00:01 |
Jupiter |
1.92804576778627 |
1.92804527095604 |
1.92804626461782 |
3.16578406897989 |
3.02383127286883 |
2417020.323963527 |
0.850775961253884 |
132.439737820897 |
18.8716920595447 |
86.5387727384973 |
3249404.84306852 |
T |
114 |
CATAB v2.0f-lin.ifort 2020-Dec-18 01:53:30 |
2020-Dec-18 01:53 |
1975-Jul-30 11:13 |
< 00:01 |
Jupiter |
1.93234163892624 |
1.93234124859774 |
1.93234202925485 |
1.6630092113324 |
1.37437977259299 |
2442623.967229305 |
0.350823863594649 |
120.887106085473 |
103.2333874056 |
-12.1626214752492 |
1347830.1162814 |
T |
114 |
CATAB v2.0f-lin.ifort 2020-Dec-18 01:53:30 |
2020-Dec-18 01:53 |
1988-Jun-25 01:19 |
< 00:01 |
Jupiter |
1.90618186147187 |
1.9061815389168 |
1.90618218402695 |
3.15225736762093 |
3.00799191888352 |
2447337.554565021 |
0.202953401252888 |
63.8651838476444 |
14.6920777407467 |
-83.2929387125022 |
3209920.94194405 |
T |
114 |
CATAB v2.0f-lin.ifort 2020-Dec-18 01:53:30 |
2020-Dec-18 01:53 |
2058-Jul-31 12:16 |
< 00:01 |
Jupiter |
1.94485395962189 |
1.94485353036166 |
1.94485438888234 |
1.69239791834464 |
1.41179708267919 |
2472941.011004185 |
0.463261947258746 |
114.685805327125 |
97.9556394037605 |
9.85371182731249 |
1361164.92122464 |
T |
114 |
CATAB v2.0f-lin.ifort 2020-Dec-18 01:53:30 |
2020-Dec-18 01:53 |
2071-Jun-28 13:36 |
< 00:01 |
Jupiter |
1.8909149365132 |
1.89091459917553 |
1.89091527385086 |
3.15704357057666 |
3.01181634178976 |
2477656.066766487 |
0.50984688661453 |
94.2130016252738 |
16.0874583050333 |
-87.9620359075572 |
3195171.37111803 |
T |
114 |
CATAB v2.0f-lin.ifort 2020-Dec-18 01:53:30 |
2020-Dec-18 01:53 |
2141-Aug-04 16:06 |
00:01 |
Jupiter |
1.95303951532798 |
1.95303883203721 |
1.95304019861942 |
1.74452211170295 |
1.47511639473549 |
2503260.170662099 |
1.19723616349113 |
147.365862869768 |
95.8201100011305 |
-6.5635958125941 |
1154838.5190601 |
T |
114 |
CATAB v2.0f-lin.ifort 2020-Dec-18 01:53:30 |
2020-Dec-18 01:53 |
2154-Jul-01 17:48 |
00:01 |
Jupiter |
1.88121813667455 |
1.88121769663783 |
1.88121857671374 |
3.16555860322875 |
3.01997631861541 |
2507974.241814308 |
1.16249214992958 |
187.68914926786 |
17.4009280501735 |
88.5638789091691 |
3187695.45855252 |
T |
114 |
CATAB v2.0f-lin.ifort 2020-Dec-18 01:53:30 |
2020-Dec-18 01:53 |
|
Alternate Designations
A895 OB = 1950 XA = 1951 AO = 1956 EZ |
|
|